Dauntless Aviation
Airports South America Uruguay

Hospital Policial

Montevideo, URUGUAY

Airport Info
Suggest Updated Information for this Airport

Location

Latitude / Longitude: 34°52'4"S / 56°9'6"W
  34°52.068'S / 56°9.114'W
  -34.8678 / -56.1519
Satellite photo at:
Airport distance calculator
From:
Weather Reports

METAR

SUAA
7.8nm NW
SUAA 231700Z 33006KT CAVOK 21/09 Q1021
SUMU
8.1nm NE
SUMU 231700Z 00000KT CAVOK 21/12 Q1019 NOSIG

TAF

SUAA
7.8nm NW
SUAA 231130Z 2312/2412 33010KT FEW023 TX20/2318Z TN08/2410Z BECMG 2318/2320 26005KT CAVOK
SUMU
8.1nm NE
SUMU 231130Z 2312/2412 33010KT FEW023 TX20/2318Z TN08/2410Z BECMG 2318/2320 26005KT CAVOK
Safelog

 

Dauntless Aviation

© 2007-2017 Dauntless Aviation, all rights reserved
Information provided via PilotNav comes from a variety of official and unofficial data sources. As errors are possible, do not use PilotNav for primary flight planning purposes. Verify any information that you receive via PilotNav with current and canonical charts and other official documents. The material in this database is subject to database copyrights held by Dauntless Aviation and may not be copied without the express permission of Dauntless Aviation - licenses for use of part of all of this data are available for purchase; enquire via the Dauntless Aviation helpdesk. A number of mechanisms and markers exist in the database to protect against and identify infringement / copyright. Automated queries against this website are stictly prohibited, and all activity is logged and analyzed.